This demonstration page uses our WeatherBlox Daily Observations layout. Learn more.

Left ArrowRight Arrow

Hourly Observations for March 30, 2017

Temp ( °F °C ) Dew Point ( °F °C ) Humidity (%) Winds ( mph kmh ) Pressure ( in mb ) Visibility ( mi km ) Precip ( " mm )
12:52 am 00:52 Mostly Cloudy 56 13.3 53 11.7 90 90 S 6 9 29.63 1003 10 16 0.00 0.00
1:52 am 01:52 Clear 54 12.2 51 10.6 90 90 S 6 9 29.62 1003 10 16 0.00 0.00
2:52 am 02:52 Mostly Clear 51 10.6 49 9.4 92 92 SSW 7 11 29.61 1003 10 16 0.00 0.00
3:52 am 03:52 Mostly Cloudy 53 11.7 48 8.9 83 83 WSW 8 13 29.60 1002 10 16 0.00 0.00
4:52 am 04:52 Clear 50 10 45 7.2 83 83 SW 12 19 29.58 1002 10 16 0.00 0.00
5:52 am 05:52 Mostly Clear 47 8.3 43 6.1 86 86 SW 9 15 29.58 1002 10 16 0.00 0.00
6:13 am 06:13 Mostly Cloudy 47 8.3 43 6.1 86 86 SW 12 19 29.62 1003 10 16 0.00 0.00
6:25 am 06:25 Partly Cloudy 47 8.3 42 5.6 83 83 SW 14 22 29.62 1003 10 16 0.00 0.00
6:52 am 06:52 Mostly Cloudy 47 8.3 42 5.6 83 83 SW 10 17 29.59 1002 10 16 0.00 0.00
7:52 am 07:52 Cloudy 48 8.9 42 5.6 80 80 SW 18 30 29.61 1003 10 16 0.00 0.00
8:52 am 08:52 Cloudy 48 8.9 41 5 77 77 SSW 16 26 29.60 1003 10 16 0.00 0.00
9:52 am 09:52 Cloudy 49 9.4 41 5 74 74 SW 14 22 29.59 1002 10 16 0.00 0.00
10:52 am 10:52 Cloudy 50 10 41 5 71 71 SW 18 30 29.59 1002 10 16 0.00 0.00
11:52 am 11:52 Cloudy 50 10 41 5 71 71 SW 20 31 29.60 1003 10 16 0.00 0.00
12:30 pm 12:30 Cloudy 48 9 45 7 87 87 SW 16 26 29.62 1003 9 14 0.00 0.00
12:39 pm 12:39 Cloudy 49 9.4 43 6.1 80 80 SW 14 22 29.62 1003 8 13 0.00 0.03
12:52 pm 12:52 Cloudy 49 9.4 43 6.1 80 80 SW 18 30 29.60 1003 10 16 0.00 0.03
1:52 pm 13:52 Cloudy 49 9.4 43 6.1 80 80 SW 18 30 29.60 1002 10 16 0.00 0.00
2:42 pm 14:42 Cloudy 48 9 43 6 82 82 SSW 15 24 29.62 1003 7 11 0.00 0.00
2:52 pm 14:52 Cloudy with Light Rain 47 8.3 44 6.7 90 90 SW 13 20 29.62 1003 4 6 0.00 0.03
3:07 pm 15:07 Cloudy 48 8.9 44 6.7 86 86 SW 15 24 29.62 1003 10 16 0.00 0.03
3:42 pm 15:42 Cloudy with Light Rain 48 9 45 7 87 87 SW 14 22 29.62 1003 3 5 0.00 0.00
3:52 pm 15:52 Cloudy with Light Rain 48 8.9 45 7.2 89 89 SW 17 28 29.61 1003 3 5 0.01 0.25
4:11 pm 16:11 Cloudy with Light Rain 48 8.9 45 7.2 89 89 SW 16 26 29.62 1003 3 5 0.00 0.03
4:30 pm 16:30 Cloudy with Light Rain 48 9 45 7 87 87 SW 15 24 29.62 1003 4 6 0.00 0.00
4:52 pm 16:52 Cloudy with Mist and Fog 48 8.9 46 7.8 93 93 SW 14 22 29.62 1003 4 6 0.00 0.03
5:10 pm 17:10 Cloudy with Light Rain 48 9 45 7 87 87 WSW 16 26 29.62 1003 3 4 0.00 0.00
5:24 pm 17:24 Cloudy with Mist and Fog 48 9 46 8 94 94 SW 13 20 29.62 1003 3 4 0.00 0.00
5:42 pm 17:42 Cloudy with Light Rain 48 9 46 8 94 94 WSW 16 26 29.62 1003 3 5 0.00 0.00
5:52 pm 17:52 Cloudy with Light Rain 48 8.9 45 7.2 89 89 SW 18 30 29.64 1004 4 6 0.01 0.25
6:03 pm 18:03 Cloudy 48 9 45 7 87 87 WSW 16 26 29.65 1004 10 16 0.00 0.00
6:30 pm 18:30 Cloudy with Light Rain 48 9 46 8 94 94 WSW 16 26 29.65 1004 2 3 0.00 0.00
6:37 pm 18:37 Cloudy with Light Rain 48 8.9 46 7.8 93 93 WSW 17 28 29.65 1004 2 2 0.00 0.03
6:52 pm 18:52 Cloudy with Light Rain 48 8.9 46 7.8 93 93 WSW 13 20 29.66 1005 2 3 0.00 0.03
7:43 pm 19:43 Cloudy with Light Rain 47 8.3 46 7.8 97 97 W 14 22 29.68 1005 3 5 0.02 0.51
7:52 pm 19:52 Cloudy with Light Rain 47 8.3 46 7.8 97 97 WSW 14 22 29.67 1005 3 5 0.02 0.51
8:52 pm 20:52 Cloudy with Mist and Fog 47 8.3 46 7.8 97 97 W 14 22 29.69 1005 5 8 0.01 0.25
9:52 pm 21:52 Cloudy with Mist and Fog 47 8.3 46 7.8 97 97 W 16 26 29.72 1006 6 10 0.00 0.00
10:52 pm 22:52 Cloudy 47 8.3 45 7.2 93 93 W 15 24 29.73 1007 7 11 0.00 0.00
11:12 pm 23:12 Cloudy 46 8 45 7 93 93 W 15 24 29.74 1007 10 16 0.00 0.00
11:52 pm 23:52 Cloudy 47 8.3 44 6.7 90 90 WNW 9 15 29.75 1008 10 16 0.00 0.00

Powered by AerisWeather